Location: Warwick
(41.7000°N, 71.4170°W)
Time: 14:52:24
(UTC-04:00)

BREEZE-M DEB (TANK) - Visible Passes

Search period start: 28 August 2016 00:00
Search period end: 07 September 2016 00:00
Orbit: 298 x 15887 km, 49.5° (Epoch: 26 August)

Date Brightness Start Highest point End Pass type
(mag) Time Alt. Az. Time Alt. Az. Time Alt. Az.
28 Aug 9.1 19:05:04 10° NW 20:06:20 52° WSW 22:08:41 10° SSW visible
29 Aug 9.2 19:09:18 10° NW 20:09:53 50° WSW 22:10:29 10° SSW visible
30 Aug 9.2 19:13:33 10° NW 20:13:21 47° WSW 22:12:03 10° SSW visible
31 Aug 9.3 19:17:48 10° NW 20:16:46 45° W 22:13:22 10° SSW visible
01 Sep 9.3 19:22:05 10° NW 20:20:07 43° W 22:14:22 10° SSW visible
02 Sep 9.4 19:26:24 10° NW 20:23:24 41° W 22:15:03 10° SW visible
03 Sep 9.5 19:30:45 10° NW 20:26:37 38° W 22:15:23 10° SW visible
04 Sep 9.5 19:35:09 10° NW 20:29:47 36° W 22:15:21 10° SW visible
05 Sep 9.6 19:39:36 10° NW 20:32:53 34° W 22:14:53 10° SW visible
06 Sep 9.7 19:44:07 10° NW 20:35:56 32° W 22:13:59 10° SW visible
